• Join FlightAware (Why Join?)
  • Login
  • US Flag GB Flag 
01:25 EDT


 

Airport Tracker/Info


-or-


 

Live Flight TrackerFlight Track Log ✈ UAL33 ✈ 11-Jun-2013 ✈ KORD - KIAH

Flight Track Log - Related Links

Times and Time Zones

All times are in EDT time to prevent confusion due to time zone crossing. See the UAL33 flight status page for this flight to view local times or setup timezone preferences in your user account.

Time Position Orientation Groundspeed Altitude Reporting Facility
EDT Latitude Longitude Course Direction KTS MPH feet Rate Location/Type
21:54 41.9800 -87.9120 North 23 26  Level FlightAware
21:54 41.9810 -87.9120 360° North 21 24 180 Level FlightAware
21:55 41.9800 -87.9130 217° Southwest 17 20 180 Level FlightAware
21:56 41.9780 -87.9140 200° South 26 30 240 Level FlightAware
21:56 41.9770 -87.9140 180° South 23 26 240 Level FlightAware
21:59 41.7767 -87.9367 200° South  Level FlightAware Approximate
22:00 41.6892 -87.9667 180° South  Level FlightAware Approximate
22:01 41.5989 -87.9807 187° South  Level FlightAware Approximate
22:02 41.5090 -87.9982 189° South  Level FlightAware Approximate
22:03 41.4192 -88.0162 189° South  Level FlightAware Approximate
22:03 42.0000 -87.9500 304° West 173 199 2,100  Level FlightAware
22:03 42.0000 -87.9570 270° West 180 207 2,300 1,800 Climbing FlightAware
22:04 41.9950 -87.9740 248° West 190 219 2,900 2,280 Climbing FlightAware
22:04 41.9560 -88.0120 216° Southwest 258 297 4,800 2,820 Climbing FlightAware
22:05 41.9330 -88.0330 214° Southwest 276 318 6,000 3,420 Climbing FlightAware
22:05 41.9100 -88.0460 203° Southwest 285 328 7,100 3,780 Climbing FlightAware
22:05 41.8880 -88.0510 190° South 296 341 8,100 3,900 Climbing FlightAware
22:06 41.8490 -88.0510 180° South 306 352 9,800 3,360 Climbing FlightAware
22:06 41.7860 -88.0480 178° South 326 375 12,200 3,000 Climbing FlightAware
22:07 41.7210 -88.0440 177° South 372 428 14,000 2,220 Climbing FlightAware
22:08 41.6430 -88.0410 178° South 427 491 15,300 1,860 Climbing FlightAware
22:09 41.5500 -88.0370 178° South 472 543 16,700 2,220 Climbing FlightAware
22:09 41.4600 -88.0320 178° South 489 563 18,500 2,700 Climbing FlightAware
22:10 41.3320 -88.0550 188° South 495 570 21,100 2,640 Climbing FlightAware
22:11 41.2110 -88.0960 194° South 508 585 23,400 3,240 Climbing FlightAware
22:12 41.1160 -88.1220 192° South 490 564 26,300 3,720 Climbing FlightAware
22:12 41.0290 -88.1460 192° South 485 558 28,500 1,920 Climbing FlightAware
22:13 40.9300 -88.1750 192° South 496 571 29,000 600 Climbing FlightAware
22:14 40.8480 -88.2060 196° South 486 559 29,400 1,500 Climbing FlightAware
22:15 40.7600 -88.2640 207° Southwest 486 559 31,100 2,100 Climbing FlightAware
22:15 40.6790 -88.3210 208° Southwest 494 568 32,400 1,860 Climbing FlightAware
22:16 40.6020 -88.3750 208° Southwest 498 573 33,600 2,160 Climbing FlightAware
22:17 40.5130 -88.4380 208° Southwest 489 563 35,500 1,680 Climbing FlightAware
22:17 40.4310 -88.4960 208° Southwest 492 566 36,000 300 Climbing FlightAware
22:18 40.3420 -88.5580 208° Southwest 487 560 36,000  Level FlightAware
22:19 40.2650 -88.6110 208° Southwest 486 559 36,000  Level FlightAware
22:19 40.1810 -88.6700 208° Southwest 488 562 36,000  Level FlightAware
22:20 40.0930 -88.7310 208° Southwest 488 562 36,000  Level FlightAware
22:21 39.9850 -88.8060 208° Southwest 486 559 36,000  Level FlightAware
22:22 39.9040 -88.8620 208° Southwest 485 558 36,000  Level FlightAware
22:22 39.8140 -88.9230 208° Southwest 484 557 36,000  Level FlightAware
22:23 39.7350 -88.9780 208° Southwest 484 557 36,000  Level FlightAware
22:24 39.6450 -89.0390 208° Southwest 487 560 36,000  Level FlightAware
22:25 39.5660 -89.0930 208° Southwest 489 563 36,000  Level FlightAware
22:25 39.4820 -89.1500 208° Southwest 491 565 36,000 240 Level FlightAware
22:26 39.4000 -89.2050 207° Southwest 494 568 36,400 540 Climbing FlightAware
22:27 39.3320 -89.2510 208° Southwest 494 568 36,700 1,080 Climbing FlightAware
22:27 39.2300 -89.3200 208° Southwest 492 566 38,000 840 Climbing FlightAware
22:28 39.1460 -89.3760 207° Southwest 494 568 38,000  Level FlightAware
22:29 39.0550 -89.4380 208° Southwest 490 564 38,000  Level FlightAware
22:29 38.9810 -89.4870 207° Southwest 489 563 38,000  Level FlightAware
22:30 38.9050 -89.5380 208° Southwest 489 563 38,000  Level FlightAware
22:31 38.8060 -89.6040 207° Southwest 488 562 38,000  Level FlightAware
22:32 38.7260 -89.6570 207° Southwest 487 560 38,000  Level FlightAware
22:33 38.5780 -89.7540 207° Southwest 488 562 38,000  Level FlightAware
22:33 38.5070 -89.8010 207° Southwest 487 560 38,000  Level FlightAware
22:34 38.4260 -89.8540 207° Southwest 488 562 38,000  Level FlightAware
22:35 38.3580 -89.8990 207° Southwest 488 562 38,000  Level FlightAware
22:35 38.2460 -89.9720 207° Southwest 484 557 38,000  Level FlightAware
22:36 38.1550 -90.0320 207° Southwest 484 557 38,000  Level FlightAware
22:37 38.0730 -90.0840 207° Southwest 484 557 38,000  Level FlightAware
22:38 38.0100 -90.1250 207° Southwest 484 557 38,000  Level FlightAware
22:39 37.9290 -90.1770 207° Southwest 484 557 38,000  Level FlightAware
22:39 37.8680 -90.2170 207° Southwest 484 557 38,000  Level FlightAware
22:40 37.7380 -90.3010 207° Southwest 484 557 38,000  Level FlightAware
22:41 37.6510 -90.3570 207° Southwest 484 557 38,000  Level FlightAware
22:41 37.5900 -90.3960 207° Southwest 484 557 38,000  Level FlightAware
22:42 37.4850 -90.4640 207° Southwest 484 557 38,000  Level FlightAware
22:43 37.4240 -90.5030 207° Southwest 484 557 38,000  Level FlightAware
22:44 37.2630 -90.6040 207° Southwest 489 563 38,000  Level FlightAware
22:44 37.1780 -90.6580 207° Southwest 490 564 38,000  Level FlightAware
22:45 37.0960 -90.7090 206° Southwest 491 565 38,000  Level FlightAware
22:46 37.0160 -90.7590 207° Southwest 492 566 38,000  Level FlightAware
22:46 36.9190 -90.8100 203° Southwest 494 568 38,000  Level FlightAware
22:47 36.8230 -90.8480 198° South 499 574 38,000  Level FlightAware
22:48 36.7330 -90.8840 198° South 499 574 38,000  Level FlightAware
22:49 36.6400 -90.9210 198° South 498 573 38,000  Level FlightAware
22:49 36.5670 -90.9500 198° South 499 574 38,000  Level FlightAware
22:50 36.4300 -91.0040 198° South 497 572 38,000  Level FlightAware
22:51 36.3330 -91.0420 198° South 497 572 38,000  Level FlightAware
22:52 36.2460 -91.0760 197° South 497 572 38,000  Level FlightAware
22:52 36.1530 -91.1120 197° South 496 571 38,000  Level FlightAware
22:53 36.0470 -91.1530 197° South 497 572 38,000  Level FlightAware
22:54 35.9720 -91.1810 197° South 497 572 38,000  Level FlightAware
22:55 35.8430 -91.2330 198° South 500 575 38,000  Level FlightAware
22:55 35.7510 -91.2680 197° South 501 577 38,000  Level FlightAware
22:56 35.6530 -91.3070 198° South 502 578 38,000  Level FlightAware
22:57 35.5560 -91.3440 197° South 501 577 38,000  Level FlightAware
22:58 35.4560 -91.3820 197° South 500 575 38,000  Level FlightAware
22:58 35.3620 -91.4180 197° South 500 575 38,000  Level FlightAware
22:59 35.2940 -91.4430 197° South 500 575 38,000  Level FlightAware
23:00 35.1960 -91.4800 197° South 500 575 38,000  Level FlightAware
23:00 35.1250 -91.5060 197° South 500 575 38,000  Level FlightAware
23:01 35.0590 -91.5310 197° South 500 575 38,000  Level FlightAware
23:02 34.9690 -91.5650 197° South 500 575 38,000  Level FlightAware
23:03 34.8950 -91.5920 197° South 500 575 38,000  Level FlightAware
23:04 34.7830 -91.6340 197° South 500 575 38,000  Level FlightAware
23:04 34.7130 -91.6600 197° South 500 575 38,000  Level FlightAware
23:05 34.6040 -91.7000 197° South 500 575 38,000  Level FlightAware
23:06 34.5340 -91.7260 197° South 500 575 38,000  Level FlightAware
23:07 34.4440 -91.7600 197° South 500 575 38,000  Level FlightAware
23:07 34.3750 -91.7850 197° South 500 575 38,000  Level FlightAware
23:07 34.1719 -91.8686 197° South 497 572 38,000  Level Memphis Center
23:08 34.0442 -91.9189 198° South 497 572 38,000  Level Memphis Center
23:10 33.8003 -92.0097 197° South 497 572 38,000  Level Fort Worth Center
23:11 33.6689 -92.0603 198° South 502 578 38,000  Level Fort Worth Center
23:12 33.5333 -92.1108 197° South 502 578 38,000  Level Fort Worth Center
23:13 33.4058 -92.1558 196° South 495 570 38,000  Level Fort Worth Center
23:14 33.2722 -92.2036 197° South 490 564 38,000  Level Fort Worth Center
23:20 32.4374 -92.5103 197° South 497 572 38,000  Level FlightAware ADS-B
23:21 32.3395 -92.5454 197° South 494 568 38,000  Level FlightAware ADS-B
23:22 32.2635 -92.5729 197° South 493 567 38,000  Level FlightAware ADS-B
23:23 32.1500 -92.6137 197° South 495 570 38,000  Level FlightAware ADS-B
23:23 32.0655 -92.6440 197° South 501 577 38,000 -60 Level FlightAware ADS-B
23:27 31.6107 -93.0281 216° Southwest 494 568 37,900 -180 Descending FlightAware ADS-B
23:28 31.5566 -93.0802 219° Southwest 495 570 37,200 -1,320 Descending FlightAware ADS-B
23:28 31.5029 -93.1316 219° Southwest 490 564 36,600 -1,920 Descending FlightAware ADS-B
23:29 31.4425 -93.1896 219° Southwest 491 565 35,200 -2,460 Descending FlightAware ADS-B
23:29 31.3871 -93.2429 219° Southwest 512 589 34,000 -2,040 Descending FlightAware ADS-B
23:30 31.3243 -93.3030 219° Southwest 510 587 33,000 -1,440 Descending FlightAware ADS-B
23:31 31.2643 -93.3599 219° Southwest 501 577 32,400 -720 Descending FlightAware ADS-B
23:31 31.1947 -93.4260 219° Southwest 501 577 32,200 -480 Descending FlightAware ADS-B
23:32 31.1406 -93.4774 219° Southwest 490 564 31,900 -1,140 Descending FlightAware ADS-B
23:32 31.0883 -93.5273 219° Southwest 486 559 31,100 -1,500 Descending FlightAware ADS-B
23:33 31.0354 -93.5774 219° Southwest 482 555 30,400 -1,140 Descending FlightAware ADS-B
23:33 30.9832 -93.6271 219° Southwest 479 551 30,000 -1,020 Descending FlightAware ADS-B
23:34 30.9294 -93.6777 219° Southwest 508 585 29,400 -1,920 Descending FlightAware ADS-B
23:34 30.8745 -93.7295 219° Southwest 510 587 28,100 -2,700 Descending FlightAware ADS-B
23:35 30.8188 -93.7822 219° Southwest 509 586 26,700 -2,760 Descending FlightAware ADS-B
23:35 30.7638 -93.8339 219° Southwest 504 580 25,300 -2,820 Descending FlightAware ADS-B
23:36 30.7100 -93.8846 219° Southwest 494 568 23,900 -2,820 Descending FlightAware ADS-B
23:36 30.6568 -93.9345 219° Southwest 484 557 22,500 -2,880 Descending FlightAware ADS-B
23:37 30.6030 -93.9850 219° Southwest 476 548 21,000 -2,880 Descending FlightAware ADS-B
23:37 30.5515 -94.0332 219° Southwest 470 541 19,600 -2,820 Descending FlightAware ADS-B
23:38 30.5012 -94.0800 219° Southwest 459 528 18,200 -2,820 Descending FlightAware ADS-B
23:38 30.4520 -94.1257 219° Southwest 449 517 16,800 -2,700 Descending FlightAware ADS-B
23:38 30.4372 -94.1403 220° Southwest 447 514 16,400 -2,100 Descending FlightAware ADS-B
23:39 30.4181 -94.1627 225° Southwest 440 506 16,000 -1,920 Descending FlightAware ADS-B
23:39 30.4025 -94.1855 232° Southwest 437 503 15,600 -1,980 Descending FlightAware ADS-B
23:39 30.3677 -94.2426 235° Southwest 426 490 14,600 -2,160 Descending FlightAware ADS-B
23:40 30.3405 -94.2919 237° Southwest 415 478 13,600 -1,980 Descending FlightAware ADS-B
23:40 30.3110 -94.3491 239° Southwest 378 435 12,800 -1,500 Descending FlightAware ADS-B
23:41 30.2864 -94.3971 239° Southwest 322 371 12,100 -1,260 Descending FlightAware ADS-B
23:41 30.2641 -94.4409 239° Southwest 305 351 11,500 -1,200 Descending FlightAware ADS-B
23:42 30.2426 -94.4828 239° Southwest 299 344 10,900 -1,140 Descending FlightAware ADS-B
23:42 30.2211 -94.5248 239° Southwest 298 343 10,400 -1,140 Descending FlightAware ADS-B
23:43 30.2077 -94.5511 239° Southwest 296 341 10,000 -1,200 Descending FlightAware ADS-B
23:43 30.1965 -94.5728 239° Southwest 295 339 9,700 -1,140 Descending FlightAware ADS-B
23:43 30.1861 -94.5931 239° Southwest 293 337 9,400 -1,200 Descending FlightAware ADS-B
23:43 30.1756 -94.6134 239° Southwest 291 335 9,100 -1,200 Descending FlightAware ADS-B
23:44 30.1652 -94.6337 239° Southwest 290 334 8,800 -1,020 Descending FlightAware ADS-B
23:44 30.1544 -94.6544 239° Southwest 290 334 8,600 -1,020 Descending FlightAware ADS-B
23:44 30.1441 -94.6744 239° Southwest 290 334 8,300 -1,200 Descending FlightAware ADS-B
23:45 30.1339 -94.6943 239° Southwest 288 331 8,000 -1,200 Descending FlightAware ADS-B
23:45 30.1236 -94.7143 239° Southwest 287 330 7,700 -1,200 Descending FlightAware ADS-B
23:45 30.1132 -94.7347 239° Southwest 287 330 7,400 -1,200 Descending FlightAware ADS-B
23:45 30.1021 -94.7559 239° Southwest 286 329 7,100 -1,080 Descending FlightAware ADS-B
23:45 30.0936 -94.7724 239° Southwest 283 326 6,900 -1,080 Descending FlightAware ADS-B
23:46 30.0836 -94.7919 239° Southwest 282 325 6,600 -1,200 Descending FlightAware ADS-B
23:46 30.0736 -94.8113 239° Southwest 281 323 6,300 -1,020 Descending FlightAware ADS-B
23:46 30.0639 -94.8299 239° Southwest 269 310 6,100 -1,020 Descending FlightAware ADS-B
23:46 30.0547 -94.8479 239° Southwest 251 289 5,800 -1,020 Descending FlightAware ADS-B
23:47 30.0457 -94.8652 239° Southwest 247 284 5,600 -1,020 Descending FlightAware ADS-B
23:47 30.0369 -94.8822 239° Southwest 247 284 5,300 -1,020 Descending FlightAware ADS-B
23:47 30.0280 -94.8994 239° Southwest 247 284 5,100 -960 Descending FlightAware ADS-B
23:47 30.0222 -94.9107 239° Southwest 244 281 4,900 -1,140 Descending FlightAware ADS-B
23:48 30.0153 -94.9239 239° Southwest 235 270 4,700 -840 Descending FlightAware ADS-B
23:48 30.0101 -94.9341 240° Southwest 232 267 4,600 -960 Descending FlightAware ADS-B
23:48 30.0017 -94.9500 239° Southwest 232 267 4,300 -1,080 Descending FlightAware ADS-B
23:48 29.9938 -94.9653 239° Southwest 231 266 4,100 -600 Descending FlightAware ADS-B
23:49 29.9853 -94.9817 239° Southwest 229 264 4,000 -300 Descending FlightAware ADS-B
23:49 29.9835 -94.9856 242° Southwest 229 264 4,000  Level FlightAware ADS-B
23:49 29.9821 -94.9889 244° Southwest 230 265 4,000 -900 Level FlightAware ADS-B
23:49 29.9802 -94.9944 248° West 230 265 3,900 -900 Descending FlightAware ADS-B
23:49 29.9794 -94.9979 255° West 230 265 3,900  Level FlightAware ADS-B
23:49 29.9785 -95.0022 256° West 230 265 3,900  Level FlightAware ADS-B
23:49 29.9779 -95.0066 261° West 231 266 3,900  Level FlightAware ADS-B
23:49 29.9776 -95.0113 266° West 232 267 3,900  Level FlightAware ADS-B
23:49 29.9774 -95.0153 267° West 232 267 3,900  Level FlightAware ADS-B
23:49 29.9777 -95.0292 271° West 233 268 3,900 -240 Level FlightAware ADS-B
23:49 29.9776 -95.0479 270° West 230 265 3,800 -1,440 Descending FlightAware ADS-B
23:50 29.9774 -95.0659 269° West 224 258 3,200 -2,040 Descending FlightAware ADS-B
23:50 29.9775 -95.0845 270° West 230 265 2,800 -1,140 Descending FlightAware ADS-B
23:50 29.9775 -95.1059 270° West 226 260 2,600 -600 Descending FlightAware ADS-B
23:50 29.9775 -95.1236 270° West 212 244 2,500 -240 Descending FlightAware ADS-B
23:51 29.9775 -95.1405 270° West 199 229 2,500  Level FlightAware ADS-B
23:51 29.9775 -95.1553 270° West 198 228 2,500 -660 Level FlightAware ADS-B
23:51 29.9777 -95.1713 271° West 195 224 2,200 -1,200 Descending FlightAware ADS-B
23:52 29.9776 -95.1872 270° West 182 209 1,900 -1,140 Descending FlightAware ADS-B
23:52 29.9776 -95.2029 270° West 170 196 1,600 -840 Descending FlightAware ADS-B
23:52 29.9776 -95.2199 270° West 153 176 1,400 -840 Descending FlightAware ADS-B
23:52 29.9776 -95.2339 270° West 142 163 1,100 -780 Descending FlightAware ADS-B
23:53 29.9776 -95.2452 270° West 141 162 1,000 -600 Descending FlightAware ADS-B
23:53 29.9776 -95.2508 270° West 140 161 900 -840 Descending FlightAware ADS-B
23:53 29.9776 -95.2563 270° West 140 161 800 -840 Descending FlightAware ADS-B
23:53 29.9776 -95.2619 270° West 139 160 700 -840 Descending FlightAware ADS-B
23:53 29.9776 -95.2734 270° West 140 161 500 -780 Descending FlightAware ADS-B
23:54 29.9776 -95.2848 270° West 139 160 300 -720 Descending FlightAware ADS-B
23:54 29.9776 -95.2938 270° West 138 159 200 -540 Descending FlightAware ADS-B